Total_Precipitation_Accumulation
0.00 0.00 0.00 0.00 0.01 0.01 0.01 0.04 0.11 0.15 0.14 0.21 0.31 0.52 0.70 0.72 0.88 1.25 1.46 1.46 1.45 1.74 2.23 2.59 2.83 3.01 3.35 3.52 3.64 3.61 3.79 4.14 4.44 4.30 3.96 3.72 3.39 3.13 2.91 2.66 2.48 2.50 2.47 2.62
0.00 0.01 0.00 0.01 0.01 0.01 0.02 0.06 0.14 0.16 0.16 0.26 0.40 0.63 0.80 0.93 1.18 1.32 1.24 1.25 1.41 1.79 2.28 2.65 2.93 3.08 3.33 3.59 3.98 4.06 4.20 4.50 4.60 4.44 4.32 4.14 3.95 3.52 3.36 3.19 2.95 2.60 2.42 2.50
0.01 0.01 0.01 0.01 0.01 0.02 0.04 0.07 0.13 0.14 0.21 0.36 0.46 0.86 1.04 1.16 1.32 1.32 1.26 1.47 1.49 1.58 2.00 2.28 2.41 2.60 2.78 2.91 3.14 3.40 3.84 4.31 4.43 4.49 4.41 4.33 4.30 3.76 3.47 3.29 3.04 2.70 2.45 2.39
0.01 0.01 0.01 0.02 0.02 0.02 0.06 0.06 0.06 0.10 0.19 0.46 0.53 1.08 1.31 1.50 1.58 1.43 1.40 1.36 1.34 1.58 1.91 1.93 1.80 1.95 2.21 2.20 2.50 2.87 3.29 3.61 3.82 3.94 3.91 3.88 3.77 3.53 3.44 3.32 2.92 2.65 2.43 2.35
0.02 0.02 0.02 0.04 0.03 0.03 0.05 0.04 0.07 0.11 0.19 0.41 0.48 0.82 1.32 1.71 1.83 1.46 1.37 1.28 1.35 1.58 1.63 1.59 1.62 1.72 1.89 2.06 2.37 2.67 2.95 3.20 3.36 3.44 3.48 3.51 3.35 3.25 3.21 3.07 2.77 2.49 2.32 2.19
0.02 0.04 0.04 0.03 0.03 0.04 0.04 0.07 0.13 0.20 0.37 0.71 0.62 0.73 1.24 1.63 1.48 1.28 1.23 1.05 1.16 1.36 1.45 1.51 1.59 1.72 1.86 2.16 2.51 2.79 2.98 3.17 3.22 2.99 2.87 2.85 2.86 2.89 2.82 2.62 2.40 2.15 2.03 1.92
0.13 0.10 0.07 0.05 0.06 0.07 0.08 0.17 0.56 0.93 1.24 1.14 0.72 0.83 1.41 1.29 0.95 0.89 0.99 0.97 0.97 1.04 1.18 1.30 1.49 1.71 1.88 1.99 2.09 2.51 2.90 3.04 2.94 2.68 2.50 2.40 2.47 2.55 2.46 2.30 2.21 2.08 1.87 1.72
0.28 0.25 0.13 0.09 0.12 0.13 0.13 0.24 0.70 0.96 1.00 0.99 0.79 1.19 1.68 1.29 0.87 0.71 0.81 0.83 0.74 0.69 0.67 0.76 0.94 1.06 1.16 1.18 1.24 1.40 1.66 1.91 2.00 1.87 1.85 1.87 1.91 1.95 1.93 2.03 1.90 1.87 1.76 1.61
0.16 0.15 0.10 0.12 0.17 0.18 0.24 0.28 0.30 0.50 0.69 1.04 1.04 1.22 1.29 1.05 0.84 0.78 0.88 0.81 0.65 0.60 0.56 0.62 0.72 0.73 0.83 0.88 0.94 1.08 1.30 1.50 1.53 1.51 1.51 1.55 1.57 1.58 1.60 1.63 1.57 1.55 1.59 1.50
0.10 0.10 0.11 0.11 0.15 0.18 0.20 0.28 0.43 0.68 0.91 1.05 1.12 1.39 1.53 1.37 1.14 0.99 0.95 0.82 0.62 0.52 0.51 0.57 0.68 0.67 0.78 0.94 1.10 1.23 1.32 1.39 1.37 1.35 1.33 1.26 1.36 1.37 1.41 1.38 1.30 1.29 1.35 1.35
0.08 0.10 0.13 0.18 0.22 0.22 0.23 0.30 0.46 0.64 0.70 0.90 1.25 1.34 1.06 1.01 1.03 1.09 1.10 0.92 0.66 0.51 0.47 0.52 0.65 0.71 0.79 0.91 1.04 1.17 1.27 1.34 1.30 1.25 1.29 1.33 1.34 1.34 1.32 1.27 1.19 1.24 1.29 1.29
0.09 0.11 0.17 0.25 0.22 0.16 0.22 0.32 0.48 0.71 0.77 0.81 0.95 1.05 0.64 0.63 0.75 0.86 0.89 0.72 0.54 0.47 0.45 0.52 0.63 0.67 0.79 0.89 0.94 0.95 1.04 1.20 1.22 1.22 1.32 1.44 1.42 1.39 1.29 1.18 1.13 1.16 1.19 1.21
0.15 0.15 0.27 0.54 0.50 0.27 0.25 0.25 0.36 0.49 0.60 0.69 0.89 1.03 0.63 0.62 0.77 0.81 0.77 0.62 0.55 0.54 0.56 0.63 0.65 0.66 0.73 0.80 0.85 0.84 0.93 1.07 1.20 1.24 1.31 1.41 1.36 1.31 1.20 1.11 1.12 1.12 1.13 1.18
0.13 0.14 0.24 0.62 0.67 0.44 0.32 0.28 0.31 0.44 0.55 0.52 0.52 0.70 0.71 0.72 0.85 0.83 0.78 0.68 0.68 0.61 0.63 0.72 0.79 0.72 0.70 0.71 0.74 0.76 0.88 1.06 1.09 1.10 1.14 1.20 1.16 1.13 1.14 1.14 1.08 1.04 1.10 1.15
0.13 0.17 0.17 0.27 0.37 0.41 0.38 0.31 0.27 0.30 0.33 0.43 0.46 0.61 0.77 0.82 0.85 0.74 0.68 0.68 0.71 0.66 0.58 0.61 0.57 0.56 0.57 0.59 0.62 0.67 0.71 0.83 0.97 1.05 1.09 1.15 1.18 1.15 1.13 1.08 1.00 1.01 1.02 0.96
0.20 0.24 0.22 0.30 0.38 0.41 0.41 0.36 0.30 0.25 0.26 0.31 0.38 0.55 0.61 0.72 0.73 0.70 0.61 0.61 0.64 0.53 0.46 0.45 0.39 0.36 0.40 0.46 0.51 0.56 0.59 0.68 0.81 0.84 0.91 1.09 1.18 1.13 1.09 0.99 0.94 0.92 0.94 1.03
0.31 0.33 0.33 0.38 0.46 0.55 0.58 0.36 0.32 0.32 0.29 0.41 0.63 0.71 0.66 0.82 0.83 0.70 0.59 0.51 0.47 0.42 0.40 0.36 0.31 0.31 0.36 0.42 0.49 0.55 0.63 0.68 0.74 0.77 0.82 0.86 0.96 1.03 0.99 0.89 0.87 0.89 0.96 1.09
0.36 0.51 0.53 0.50 0.67 0.83 0.67 0.39 0.31 0.36 0.36 0.36 0.49 0.53 0.59 0.80 0.85 0.65 0.51 0.48 0.43 0.39 0.38 0.35 0.37 0.40 0.49 0.51 0.57 0.70 0.81 0.82 0.81 0.86 0.87 0.84 0.87 0.95 0.98 0.94 0.92 0.99 1.06 1.11
0.31 0.51 0.58 0.63 0.78 0.79 0.66 0.52 0.45 0.49 0.56 0.40 0.43 0.48 0.47 0.53 0.61 0.65 0.47 0.50 0.53 0.46 0.45 0.43 0.43 0.48 0.61 0.61 0.65 0.78 0.83 0.87 0.89 0.89 0.89 0.88 0.90 0.96 1.01 0.99 1.05 1.15 1.25 1.18
0.41 0.53 0.67 0.64 0.81 0.97 0.79 0.61 0.52 0.59 0.98 0.63 0.44 0.42 0.45 0.50 0.73 0.82 0.56 0.46 0.46 0.46 0.51 0.55 0.54 0.59 0.66 0.69 0.80 0.90 0.94 1.01 1.04 0.98 0.94 0.98 1.07 1.12 1.17 1.26 1.42 1.50 1.51 1.44
0.81 0.84 0.82 0.78 0.85 0.87 0.76 0.59 0.54 0.98 1.20 0.71 0.55 0.47 0.50 0.54 0.63 0.66 0.56 0.48 0.45 0.51 0.62 0.71 0.82 0.88 0.92 0.85 0.94 1.06 1.15 1.21 1.18 1.22 1.23 1.25 1.36 1.43 1.48 1.65 1.78 1.83 1.82 1.91
1.06 1.07 1.02 1.01 1.16 1.18 0.85 0.82 0.99 1.15 1.02 0.80 0.67 0.62 0.55 0.52 0.50 0.54 0.54 0.56 0.54 0.60 0.74 0.81 0.89 0.95 1.01 1.09 1.19 1.23 1.25 1.30 1.41 1.45 1.50 1.56 1.70 1.63 1.63 1.85 1.94 2.07 2.19 2.16
1.04 1.08 1.10 1.16 1.21 1.09 0.97 1.10 1.15 1.03 1.08 1.01 0.82 0.76 0.68 0.63 0.54 0.50 0.54 0.60 0.64 0.66 0.70 0.79 0.87 0.95 1.08 1.17 1.27 1.43 1.47 1.47 1.57 1.68 1.75 1.87 2.00 2.12 2.15 2.23 2.27 2.29 2.31 2.28
1.15 1.00 1.15 1.32 1.36 1.26 1.28 1.25 1.20 1.16 1.12 1.00 0.83 0.81 0.74 0.67 0.58 0.58 0.60 0.62 0.64 0.66 0.64 0.68 0.80 0.96 1.09 1.22 1.40 1.62 1.64 1.56 1.65 1.80 1.83 1.95 2.11 2.18 2.25 2.38 2.40 2.38 2.37 2.40
1.29 1.25 1.50 1.68 1.65 1.64 1.65 1.49 1.29 1.16 1.01 0.92 0.81 0.78 0.71 0.67 0.64 0.60 0.61 0.64 0.61 0.58 0.60 0.66 0.74 0.90 1.02 1.04 1.23 1.47 1.62 1.69 1.81 1.89 1.96 2.09 2.24 2.35 2.43 2.33 2.36 2.40 2.42 2.36
1.32 1.39 1.61 1.81 1.66 1.63 1.69 1.50 1.23 1.18 1.17 1.08 1.04 1.01 0.89 0.81 0.79 0.70 0.61 0.58 0.55 0.55 0.60 0.69 0.73 0.79 0.89 0.97 1.14 1.30 1.52 1.69 1.94 1.99 2.04 2.14 2.22 2.35 2.37 2.35 2.24 2.12 2.01 1.97